TimeEDT,TemperatureF,Dew PointF,Humidity,Sea Level PressureIn,VisibilityMPH,Wind Direction,Wind SpeedMPH,Gust SpeedMPH,PrecipitationIn,Events,Conditions,WindDirDegrees,DateUTC
12:56 AM,28.9,14.0,54,30.14,10.0,North,3.5,-,N/A,,Partly Cloudy,10,2013-04-06 04:56:00
1:56 AM,26.1,14.0,60,30.17,10.0,NNW,5.8,-,N/A,,Clear,340,2013-04-06 05:56:00
2:56 AM,25.0,14.0,63,30.20,10.0,NNW,3.5,-,N/A,,Clear,330,2013-04-06 06:56:00
3:56 AM,23.0,12.9,65,30.23,10.0,North,6.9,-,N/A,,Clear,360,2013-04-06 07:56:00
4:56 AM,25.0,9.0,51,30.26,10.0,North,8.1,-,N/A,,Clear,360,2013-04-06 08:56:00
5:56 AM,21.9,9.0,58,30.28,10.0,NE,3.5,-,N/A,,Clear,50,2013-04-06 09:56:00
6:56 AM,16.0,10.0,77,30.30,10.0,Calm,Calm,-,N/A,,Clear,0,2013-04-06 10:56:00
7:56 AM,26.1,12.0,55,30.32,10.0,Calm,Calm,-,N/A,,Clear,0,2013-04-06 11:56:00
8:56 AM,30.0,9.0,41,30.34,10.0,North,10.4,-,N/A,,Clear,10,2013-04-06 12:56:00
9:56 AM,33.1,6.1,32,30.34,10.0,North,11.5,-,N/A,,Clear,360,2013-04-06 13:56:00
10:56 AM,34.0,6.1,31,30.35,10.0,NNE,4.6,-,N/A,,Clear,30,2013-04-06 14:56:00
11:56 AM,36.0,3.9,26,30.35,10.0,North,3.5,-,N/A,,Clear,360,2013-04-06 15:56:00
12:56 PM,37.9,3.9,24,30.33,10.0,Variable,4.6,-,N/A,,Clear,0,2013-04-06 16:56:00
1:56 PM,39.0,10.0,30,30.32,10.0,West,8.1,-,N/A,,Clear,260,2013-04-06 17:56:00
2:56 PM,39.9,9.0,28,30.30,10.0,SW,5.8,-,N/A,,Clear,220,2013-04-06 18:56:00
3:56 PM,39.0,12.9,34,30.29,10.0,WSW,11.5,19.6,N/A,,Clear,250,2013-04-06 19:56:00
4:56 PM,37.9,12.9,36,30.28,10.0,SW,6.9,-,N/A,,Clear,230,2013-04-06 20:56:00
5:56 PM,39.0,10.0,30,30.26,10.0,Calm,Calm,-,N/A,,Clear,0,2013-04-06 21:56:00
6:56 PM,37.9,12.9,36,30.25,10.0,WNW,3.5,-,N/A,,Clear,300,2013-04-06 22:56:00
7:56 PM,36.0,15.1,43,30.24,10.0,Calm,Calm,-,N/A,,Overcast,0,2013-04-06 23:56:00
8:56 PM,36.0,16.0,44,30.22,10.0,East,3.5,-,N/A,,Mostly Cloudy,80,2013-04-07 00:56:00
9:56 PM,35.1,18.0,50,30.19,10.0,East,5.8,-,N/A,,Mostly Cloudy,80,2013-04-07 01:56:00
10:56 PM,36.0,19.0,50,30.16,10.0,ENE,4.6,-,N/A,,Overcast,60,2013-04-07 02:56:00
11:56 PM,39.9,15.1,36,30.12,10.0,Calm,Calm,-,N/A,,Mostly Cloudy,0,2013-04-07 03:56:00